Regional Weather Roundup
Issued by NWS

Home | Current Version | Previous Version | Text Only | Print | Product List | Glossary On
Versions: 1 2 3 4 5 6 7 8 9 10 11 12 13 14 15 16 17 18 19 20 21 22 23 24 25 26 27 28 29 30 31 32 33 34 35 36 37 38 39 40 41 42 43 44 45 46 47 48 49 50
000
ASUS43 KMPX 221410
RWRMN
WEATHER ROUNDUP FOR MINNESOTA
NATIONAL WEATHER SERVICE TWIN CITIES/CHANHASSEN MN
900 AM CDT SAT APR 22 2017


NOTE: "FAIR" INDICATES FEW OR NO CLOUDS BELOW 12,000 FEET WITH NO
SIGNIFICANT WEATHER AND/OR OBSTRUCTIONS TO VISIBILITY. N/A MEANS
CURRENT SKY AND/OR WEATHER CONDITIONS ARE NOT AVAILABLE.

MNZ060>063-068>070-221500-
   Twin Cities Metro

CITY           SKY/WX    TMP DP  RH WIND       PRES   REMARKS
TWIN CITIES    SUNNY     52  39  61 S3        30.27S
ST PAUL        SUNNY     50  41  71 CALM      30.28S
CRYSTAL        SUNNY     55  34  45 CALM      30.25S
BLAINE         SUNNY     55  36  47 CALM      30.26S
LAKEVILLE      SUNNY     54  30  40 W3        30.27R
EDEN PRAIRIE   SUNNY     51  41  68 S3        30.26S
SOUTH ST PAUL  SUNNY     54  33  45 W7        30.26S
LAKE ELMO      FAIR      52  39  62 CALM      30.27S
$$
MNZ001>005-007-008-013>017-022>024-027-028-221500-
   Northwest Minnesota

CITY           SKY/WX    TMP DP  RH WIND       PRES   REMARKS
BEMIDJI        MOSUNNY   51  38  60 SW8       30.17F
HALLOCK        CLOUDY    43  43 100 NW12      30.17R FOG
ROSEAU         CLOUDY    48  41  76 W8        30.13F
WARROAD          N/A     48  39  71 W7        30.13S HAZE
THIEF RVR FALL SUNNY     50  40  68 SW12      30.17F
CROOKSTON      MOSUNNY   50  43  76 W7        30.18S
FOSSTON        MOSUNNY   50  41  71 SW13      30.18F
DETROIT LAKES  MOSUNNY   54  41  62 SW7       30.22F
MOORHEAD       MOSUNNY   48  41  76 SW9       30.23S
PARK RAPIDS    SUNNY     54  39  57 W10       30.20F
MAHNOMEN       FAIR      49  41  74 SW9       30.19F
$$
MNZ006-009>011-018-025>026-221500-
   North Central Minnesota

CITY           SKY/WX    TMP DP  RH WIND       PRES   REMARKS
BAUDETTE       MOSUNNY   52  38  58 SW8       30.11F
FLAG ISLAND    MOSUNNY   45  37  76 NW9       30.10S
INTL FALLS     MOSUNNY   51  37  58 W6        30.11F
WASKISH        PTSUNNY   52  43  71 SW17      30.14F
BIG FORK       SUNNY     54  39  58 SW8       30.16F
LONGVILLE      MOSUNNY   50  39  66 SW6       30.19F
GRAND RAPIDS   CLOUDY    53  37  54 W5        30.20F
CRANE LAKE     CLOUDY    46  36  66 CALM      30.15F
ORR            MOSUNNY   46  34  61 MISG      30.13F
COOK           PTSUNNY   48  37  66 SW6       30.16F
WALKER         FAIR      55  37  51 W10       30.18F
$$
MNZ012-019>021-037-221500-
   Northeast Minnesota

CITY           SKY/WX    TMP DP  RH WIND       PRES   REMARKS
DULUTH         SUNNY     55  36  48 W9        30.18F
ELY            MOSUNNY   46  34  61 SW6       30.15F
HIBBING        SUNNY     52  37  56 NW5       30.17F
EVELETH        MOSUNNY   45  34  65 W3        30.18S
DULUTH HARBOR  SUNNY     52  37  58 SW9       30.20S
TWO HARBORS    SUNNY     57  39  51 W5        30.15F
SILVER BAY     CLOUDY    55  30  38 W3        30.14F
GRAND MARAIS     N/A     41  34  76 SW7       30.14F
G MARAIS ARPRT CLOUDY    54  27  35 W6        30.14S
$$
MNZ029>031-032-039>041-046>048-054>057-064-221500-
   West Central Minnesota

CITY           SKY/WX    TMP DP  RH WIND       PRES   REMARKS
FERGUS FALLS   SUNNY     48  43  81 SW3       30.24F
WHEATON        SUNNY     54  41  62 SW5       30.27F
MORRIS         SUNNY     50  41  71 CALM      30.26S
ALEXANDRIA     SUNNY     54  42  64 W6        30.26S
ELBOW LAKE     FAIR      50  42  72 W3        30.26S
WADENA         SUNNY     52  43  71 W7        30.22F
GLENWOOD       SUNNY     50  43  76 W8        30.26S
APPLETON       SUNNY     52  41  66 W6        30.27S
BENSON         SUNNY     54  37  54 CALM      30.28F
ORTONVILLE     SUNNY     52  41  66 W3        30.26F
MADISON        SUNNY     54  39  58 W3        30.27F
WILLMAR        FAIR      50  45  81 NW6       30.28S
$$
MNZ033>034-036-042>043-049>051-058-059-221500-
   Central Minnesota

CITY           SKY/WX    TMP DP  RH WIND       PRES   REMARKS
ST CLOUD       SUNNY     51  41  68 NW5       30.24F
SAUK CENTRE    FAIR      50  42  72 CALM      30.26S
PAYNESVILLE    SUNNY     51  43  74 W3        30.26F
AITKIN         PTSUNNY   52  36  54 W3        30.20F
PINE RIVER     MOSUNNY   48  39  71 SW5       30.24S
BRAINERD       CLOUDY    48  39  71 SW5       30.23F
STAPLES        SUNNY     52  39  62 W7        30.23S
LONG PRAIRIE   FAIR      50  41  71 SW6       30.26S
LITTLE FALLS   SUNNY     50  37  62 CALM      30.24S
LITCHFIELD     SUNNY     54  43  66 NW3       30.26S
BUFFALO        SUNNY     53  38  55 W3        30.26F
MAPLE LAKE     SUNNY     55  42  60 W5        30.26F
HUTCHINSON     CLOUDY    54  42  63 W3        30.27S
$$
MNZ037-044-045-052-053-221500-
   East Central Minnesota

CITY           SKY/WX    TMP DP  RH WIND       PRES   REMARKS
PRINCETON      SUNNY     54  39  58 W5        30.24S
MORA           SUNNY     50  37  62 W3        30.24S
CAMBRIDGE      SUNNY     55  39  54 SW5       30.22S
RUSH CITY      MOSUNNY   53  37  54 SW5       30.24S
MOOSE LAKE     SUNNY     50  34  53 CALM      30.20S
HINCKLEY       FAIR      50  37  62 CALM      30.23S
CLOQUET        SUNNY     54  34  47 W3        30.19F
MCGREGOR       MOSUNNY   48  39  71 SW5       30.21F
$$
MNZ071>073-080-081-089-090-097-098-221500-
   Southwest Minnesota

CITY           SKY/WX    TMP DP  RH WIND       PRES   REMARKS
MONTEVIDEO     SUNNY     54  45  71 NW7       30.28S
GRANITE FALLS  SUNNY     52  43  71 NW7       30.30S
CANBY          SUNNY     56  41  58 CALM      30.29S
MARSHALL       SUNNY     53  44  71 NW6       30.28S
REDWOOD FALLS  SUNNY     49  40  71 W6        30.28R
OLIVIA         SUNNY     50  43  76 NW7       30.26S
PIPESTONE      SUNNY     52  37  58 CALM      30.28S
WINDOM         SUNNY     54  41  62 NW8       30.28S
JACKSON        SUNNY     52  39  62 NW10      30.27F
TRACY          SUNNY     55  44  68 NW3       30.28S
SLAYTON        SUNNY     50  42  74 NW5       30.29R
$$
MNZ065>067-074>077-082>085-091>093-221500-
   South Central Minnesota

CITY           SKY/WX    TMP DP  RH WIND       PRES   REMARKS
MANKATO        SUNNY     51  41  68 CALM      30.28S
NEW ULM        SUNNY     48  39  71 W5        30.27S
ST JAMES       SUNNY     50  43  76 W6        30.28S
FAIRMONT       SUNNY     51  40  65 N7        30.28S
GLENCOE        SUNNY     53  44  73 CALM      30.26S
FARIBAULT      SUNNY     52  39  62 CALM      30.27S
OWATONNA       SUNNY     50  34  53 CALM      30.27R
WASECA         SUNNY     52  39  62 W3        30.28S
ALBERT LEA     SUNNY     52  30  43 CALM      30.26S
$$
MNZ078>079-086>088-094>096-221500-
   Southeast Minnesota

CITY           SKY/WX    TMP DP  RH WIND       PRES   REMARKS
ROCHESTER      SUNNY     50  26  39 SE5       30.27R
RED WING       SUNNY     48  34  57 CALM      30.26S
STANTON        SUNNY     49  39  68 CALM      30.26S
DODGE CENTER   SUNNY     52  28  40 CALM      30.26S
WINONA         SUNNY     46  36  66 CALM      30.27F
AUSTIN         SUNNY     50  36  57 CALM      30.26R
PRESTON        SUNNY     47  28  47 SE5       30.27S
$$
ABBREVIATIONS USED IN REMARKS
   TC - TEMPERATURES IN CELSIUS
  WCI - WIND CHILL INDEX
   HX - HEAT INDEX
  VSB - VISIBILITY
$$




USA.gov is the U.S. government's official web portal to all federal, state and local government web resources and services.